Total_Precipitation_Accumulation
0.09 0.15 0.36 0.34 0.36 0.35 0.34 0.29 0.28 0.31 0.39 0.48 0.48 0.44 0.45 0.45 0.45 0.37 0.42 0.43 0.44 0.48 0.46 0.48 0.52 0.56 0.58 0.57 0.46 0.28 0.20 0.19 0.15 0.12 0.13 0.16 0.19 0.20 0.17 0.17 0.22 0.25 0.28
0.07 0.14 0.32 0.34 0.38 0.40 0.38 0.32 0.30 0.32 0.38 0.46 0.51 0.52 0.53 0.54 0.53 0.47 0.45 0.46 0.46 0.47 0.48 0.47 0.42 0.37 0.34 0.33 0.26 0.20 0.17 0.11 0.07 0.05 0.04 0.06 0.11 0.14 0.13 0.14 0.20 0.27 0.32
0.08 0.16 0.29 0.35 0.40 0.41 0.39 0.34 0.30 0.33 0.40 0.45 0.51 0.57 0.57 0.57 0.57 0.56 0.54 0.50 0.52 0.48 0.52 0.44 0.34 0.27 0.24 0.21 0.19 0.16 0.15 0.08 0.05 0.04 0.04 0.07 0.10 0.15 0.16 0.18 0.23 0.30 0.36
0.11 0.17 0.28 0.39 0.44 0.44 0.42 0.40 0.35 0.36 0.42 0.47 0.52 0.58 0.58 0.59 0.62 0.58 0.55 0.51 0.51 0.47 0.46 0.37 0.29 0.23 0.18 0.16 0.16 0.14 0.12 0.09 0.06 0.05 0.07 0.10 0.14 0.23 0.27 0.30 0.35 0.36 0.35
0.18 0.23 0.38 0.48 0.52 0.51 0.48 0.48 0.45 0.42 0.47 0.52 0.59 0.63 0.64 0.66 0.66 0.60 0.53 0.47 0.43 0.40 0.40 0.33 0.24 0.19 0.15 0.12 0.12 0.12 0.11 0.08 0.05 0.03 0.05 0.09 0.17 0.30 0.32 0.34 0.39 0.38 0.34
0.30 0.37 0.50 0.61 0.68 0.64 0.59 0.55 0.53 0.52 0.52 0.54 0.60 0.65 0.66 0.67 0.69 0.64 0.55 0.43 0.35 0.33 0.33 0.30 0.22 0.19 0.16 0.13 0.13 0.13 0.11 0.08 0.04 0.04 0.06 0.11 0.17 0.29 0.29 0.32 0.34 0.37 0.41
0.49 0.59 0.66 0.77 0.84 0.82 0.75 0.67 0.61 0.59 0.58 0.59 0.64 0.66 0.68 0.67 0.68 0.69 0.60 0.42 0.31 0.30 0.32 0.30 0.25 0.22 0.19 0.16 0.14 0.14 0.12 0.08 0.04 0.04 0.08 0.12 0.19 0.30 0.33 0.34 0.34 0.35 0.40
0.75 0.88 0.91 1.01 0.98 0.95 0.86 0.80 0.71 0.70 0.67 0.68 0.72 0.70 0.72 0.73 0.70 0.71 0.63 0.48 0.36 0.32 0.34 0.32 0.28 0.25 0.23 0.19 0.16 0.14 0.12 0.07 0.04 0.03 0.07 0.11 0.18 0.30 0.35 0.34 0.32 0.31 0.33
1.15 1.26 1.19 1.17 1.05 1.06 1.00 0.87 0.82 0.77 0.77 0.78 0.79 0.74 0.72 0.71 0.72 0.69 0.61 0.49 0.43 0.39 0.40 0.38 0.32 0.29 0.24 0.22 0.18 0.14 0.10 0.06 0.04 0.04 0.05 0.09 0.17 0.30 0.33 0.36 0.38 0.35 0.35
1.50 1.66 1.60 1.43 1.27 1.16 1.10 0.97 0.90 0.86 0.83 0.79 0.72 0.61 0.57 0.62 0.68 0.63 0.50 0.43 0.41 0.39 0.40 0.39 0.37 0.33 0.28 0.23 0.19 0.14 0.09 0.07 0.05 0.05 0.07 0.11 0.20 0.32 0.37 0.40 0.42 0.40 0.39
1.82 1.92 1.98 1.81 1.55 1.36 1.22 1.04 1.02 0.98 0.90 0.84 0.70 0.56 0.51 0.54 0.58 0.51 0.39 0.35 0.38 0.39 0.38 0.37 0.36 0.34 0.29 0.22 0.18 0.15 0.12 0.08 0.07 0.07 0.09 0.16 0.29 0.39 0.38 0.35 0.36 0.37 0.39
1.87 1.96 2.13 2.01 1.84 1.65 1.41 1.16 1.16 1.12 0.94 0.82 0.68 0.62 0.55 0.52 0.55 0.49 0.42 0.36 0.37 0.37 0.36 0.41 0.41 0.37 0.33 0.24 0.19 0.17 0.14 0.11 0.10 0.09 0.11 0.20 0.33 0.42 0.37 0.32 0.32 0.32 0.35
1.97 2.13 2.25 2.26 2.00 1.88 1.73 1.40 1.20 1.17 1.10 0.98 0.81 0.71 0.67 0.64 0.62 0.61 0.52 0.46 0.42 0.35 0.31 0.33 0.38 0.32 0.28 0.25 0.23 0.20 0.17 0.16 0.14 0.12 0.13 0.17 0.25 0.36 0.39 0.36 0.34 0.33 0.33
2.11 2.18 2.29 2.45 2.27 1.98 1.83 1.65 1.46 1.30 1.20 1.10 0.96 0.86 0.85 0.77 0.64 0.58 0.53 0.47 0.48 0.40 0.35 0.33 0.30 0.28 0.28 0.27 0.25 0.23 0.21 0.19 0.16 0.15 0.15 0.17 0.19 0.27 0.36 0.40 0.40 0.40 0.40
2.13 2.26 2.33 2.43 2.45 2.22 2.01 1.82 1.64 1.47 1.34 1.34 1.25 1.10 1.00 0.90 0.73 0.62 0.56 0.56 0.56 0.52 0.47 0.42 0.37 0.34 0.32 0.32 0.29 0.25 0.25 0.25 0.22 0.20 0.18 0.17 0.17 0.20 0.30 0.41 0.49 0.54 0.56
2.02 2.21 2.34 2.42 2.54 2.49 2.20 2.04 1.85 1.59 1.41 1.45 1.43 1.29 1.22 1.12 1.02 0.88 0.76 0.70 0.67 0.63 0.60 0.56 0.50 0.47 0.42 0.38 0.34 0.29 0.25 0.27 0.29 0.28 0.25 0.22 0.19 0.18 0.23 0.37 0.51 0.61 0.64
1.99 2.21 2.23 2.32 2.52 2.59 2.45 2.27 2.07 1.87 1.59 1.49 1.43 1.35 1.35 1.26 1.17 1.09 1.00 0.95 0.90 0.84 0.77 0.73 0.71 0.67 0.57 0.49 0.43 0.39 0.35 0.33 0.33 0.34 0.33 0.29 0.24 0.21 0.22 0.31 0.45 0.59 0.64
2.10 2.27 2.29 2.29 2.45 2.51 2.54 2.54 2.40 2.24 1.98 1.69 1.57 1.51 1.46 1.42 1.32 1.22 1.13 1.01 0.96 0.99 0.98 0.90 0.83 0.78 0.66 0.55 0.46 0.41 0.37 0.36 0.36 0.38 0.39 0.38 0.33 0.29 0.24 0.25 0.32 0.46 0.57
2.06 2.23 2.38 2.35 2.47 2.56 2.56 2.60 2.58 2.41 2.28 2.06 1.73 1.53 1.49 1.52 1.51 1.43 1.29 1.19 1.14 1.03 0.99 0.99 0.93 0.81 0.74 0.70 0.63 0.52 0.42 0.36 0.35 0.35 0.35 0.35 0.36 0.35 0.31 0.30 0.31 0.35 0.46
1.99 2.16 2.32 2.36 2.44 2.70 2.78 2.74 2.72 2.47 2.24 2.20 1.98 1.70 1.56 1.58 1.63 1.57 1.43 1.36 1.37 1.26 1.09 0.98 0.97 0.93 0.82 0.80 0.78 0.70 0.61 0.52 0.45 0.39 0.37 0.35 0.33 0.33 0.33 0.29 0.29 0.30 0.35
1.90 2.09 2.23 2.30 2.35 2.56 2.70 2.68 2.60 2.45 2.22 2.09 2.04 1.91 1.78 1.71 1.74 1.73 1.60 1.48 1.44 1.35 1.22 1.13 1.05 1.04 1.02 0.97 0.96 0.84 0.71 0.65 0.60 0.52 0.48 0.46 0.43 0.41 0.38 0.35 0.33 0.30 0.28
1.63 1.88 2.13 2.24 2.31 2.30 2.35 2.54 2.68 2.75 2.56 2.25 2.07 1.98 1.86 1.78 1.76 1.73 1.70 1.63 1.54 1.48 1.44 1.39 1.33 1.26 1.20 1.20 1.18 1.15 0.99 0.81 0.64 0.55 0.56 0.55 0.51 0.50 0.46 0.41 0.37 0.35 0.31
1.40 1.65 1.97 2.14 2.27 2.27 2.27 2.52 2.73 2.86 2.68 2.36 2.01 1.85 1.85 1.87 1.87 1.77 1.75 1.76 1.67 1.57 1.49 1.46 1.42 1.37 1.31 1.29 1.30 1.36 1.21 0.95 0.70 0.57 0.52 0.53 0.54 0.54 0.52 0.52 0.52 0.47 0.41
1.25 1.43 1.61 1.82 1.99 2.18 2.25 2.30 2.33 2.41 2.38 2.15 2.03 1.95 1.95 1.95 1.94 1.89 1.83 1.82 1.78 1.69 1.54 1.49 1.44 1.37 1.33 1.29 1.28 1.23 1.14 0.97 0.90 0.75 0.58 0.54 0.55 0.55 0.56 0.57 0.60 0.61 0.60
1.10 1.35 1.49 1.56 1.75 1.95 2.10 2.16 2.27 2.21 2.23 2.28 2.23 2.15 2.07 2.02 1.96 1.89 1.84 1.82 1.74 1.67 1.63 1.65 1.58 1.52 1.43 1.34 1.28 1.25 1.23 1.07 0.92 0.89 0.74 0.58 0.59 0.58 0.61 0.65 0.66 0.68 0.68
1.00 1.21 1.43 1.43 1.51 1.64 1.86 2.08 2.15 2.05 2.05 2.09 2.07 2.04 2.03 2.03 2.00 1.91 1.80 1.75 1.71 1.68 1.65 1.67 1.72 1.65 1.59 1.51 1.41 1.33 1.32 1.26 1.10 1.05 0.97 0.76 0.69 0.63 0.61 0.63 0.67 0.70 0.69